CW1509 Weather Reports


Display with metric or nautical units.
time (UTC)temp
F
wind
direction
speed
MPH
gust
MPH
rain 1hr
in
rain 24hr
in
rain mn
in
humidity
%
barometer
mb
20260831124922 72 175 0.0 0.0 0.00 0.09 0.00 86 1016.9
20260831124423 72 175 0.0 0.0 0.00 0.09 0.00 86 1016.8
20260831123942 72 175 0.0 0.0 0.00 0.09 0.00 86 1016.9
20260831123421 72 175 0.0 0.0 0.00 0.09 0.00 86 1016.9
20260831122923 72 175 0.0 0.0 0.00 0.09 0.00 86 1017.0
20260831122422 71 175 0.0 0.0 0.00 0.09 0.00 86 1016.9
20260831121920 71 175 0.0 2.0 0.00 0.09 0.00 87 1016.7
20260831121419 71 175 0.0 2.0 0.00 0.09 0.00 87 1016.6
20260831120940 71 175 0.0 0.0 0.00 0.09 0.00 87 1016.5
20260831120438 71 175 0.0 0.0 0.00 0.09 0.00 88 1016.4
20260831115937 71 175 0.0 0.0 0.00 0.09 0.00 88 1016.3
20260831115436 71 175 0.0 0.0 0.00 0.09 0.00 88 1016.2
20260831114917 71 175 0.0 0.0 0.00 0.09 0.00 88 1016.1
20260831114418 71 175 0.0 0.0 0.00 0.09 0.00 88 1016.1
20260831113936 71 180 0.0 0.0 0.00 0.09 0.00 89 1015.9
20260831113415 70 180 0.0 1.0 0.00 0.09 0.00 89 1015.9
20260831112934 70 180 0.0 4.0 0.00 0.09 0.00 89 1015.8
20260831112432 70 205 1.0 4.0 0.00 0.09 0.00 89 1015.8
20260831111930 70 175 0.0 0.0 0.00 0.09 0.00 90 1015.8
20260831111430 70 188 0.0 0.0 0.00 0.09 0.00 90 1015.8
20260831110928 70 188 0.0 0.0 0.00 0.09 0.00 90 1015.8
20260831110428 70 178 0.0 0.0 0.00 0.09 0.00 90 1015.8
20260831105926 70 192 0.0 0.0 0.00 0.09 0.00 90 1015.8
20260831105445 70 171 0.0 0.0 0.00 0.09 0.00 90 1015.8
20260831104924 70 177 0.0 0.0 0.00 0.09 0.00 91 1015.8
20260831104442 70 176 0.0 0.0 0.00 0.09 0.00 91 1015.8
20260831103916 70 176 0.0 0.0 0.00 0.09 0.00 91 1015.9
20260831103434 70 192 0.0 0.0 0.00 0.09 0.00 91 1015.9
20260831102955 70 192 0.0 0.0 0.00 0.09 0.00 91 1015.9
20260831102415 70 175 0.0 0.0 0.00 0.09 0.00 91 1016.0
20260831101915 70 175 0.0 0.0 0.00 0.09 0.00 91 1016.0
20260831101436 70 181 0.0 0.0 0.00 0.09 0.00 91 1016.0
20260831100917 70 181 0.0 0.0 0.00 0.09 0.00 91 1016.0
20260831100419 70 181 0.0 1.0 0.00 0.14 0.00 91 1016.1
20260831095920 70 181 0.0 1.0 0.00 0.14 0.00 91 1016.1
20260831095422 71 198 0.0 0.0 0.00 0.14 0.00 91 1016.1
20260831094923 71 198 0.0 0.0 0.00 0.14 0.00 91 1016.1
20260831094445 71 198 0.0 0.0 0.00 0.14 0.00 91 1015.9
20260831093926 71 198 0.0 0.0 0.00 0.14 0.00 91 1016.0
20260831093427 71 198 0.0 0.0 0.00 0.14 0.00 91 1016.1
20260831092928 71 198 0.0 0.0 0.00 0.14 0.00 91 1016.1
20260831092429 71 198 0.0 0.0 0.00 0.14 0.00 91 1016.0
20260831091930 71 198 0.0 0.0 0.00 0.14 0.00 90 1016.1
20260831091430 71 198 0.0 0.0 0.00 0.14 0.00 90 1016.2
20260831090932 71 198 0.0 0.0 0.00 0.14 0.00 90 1016.2
20260831090453 71 198 0.0 0.0 0.00 0.15 0.00 90 1016.2
20260831085931 71 198 0.0 0.0 0.00 0.15 0.00 90 1016.2
20260831085432 71 198 0.0 0.0 0.00 0.15 0.00 90 1016.1
20260831084931 71 198 0.0 0.0 0.00 0.15 0.00 90 1016.2
20260831084451 71 198 0.0 0.0 0.00 0.15 0.00 90 1016.2
20260831083929 71 198 0.0 0.0 0.00 0.15 0.00 90 1016.2
20260831083430 71 198 0.0 0.0 0.00 0.15 0.00 90 1016.1
20260831082930 71 198 0.0 0.0 0.00 0.15 0.00 90 1016.0
20260831082429 71 198 0.0 1.0 0.00 0.15 0.00 90 1015.9
20260831081950 71 198 0.0 1.0 0.00 0.15 0.00 90 1016.0
20260831081451 71 198 0.0 3.0 0.00 0.15 0.00 90 1015.9
20260831080932 71 184 0.0 0.0 0.00 0.15 0.00 90 1016.1
20260831080433 72 184 0.0 0.0 0.00 0.15 0.00 90 1016.0
20260831075915 72 184 0.0 1.0 0.00 0.15 0.00 89 1016.1
20260831075437 72 184 0.0 1.0 0.00 0.15 0.00 89 1016.1
20260831074917 72 184 0.0 0.0 0.00 0.15 0.00 89 1016.2
20260831074418 72 184 0.0 0.0 0.00 0.15 0.00 89 1016.3
20260831073938 72 184 0.0 0.0 0.00 0.15 0.00 89 1016.4
20260831073419 72 184 0.0 0.0 0.00 0.15 0.00 89 1016.4
20260831072921 72 184 0.0 0.0 0.00 0.15 0.00 89 1016.4
20260831072421 72 184 0.0 0.0 0.00 0.15 0.00 90 1016.3
20260831071924 72 184 0.0 0.0 0.00 0.15 0.00 90 1016.3
20260831071425 72 184 0.0 0.0 0.00 0.15 0.00 90 1016.3
20260831070925 72 185 0.0 2.0 0.00 0.15 0.00 90 1016.2
20260831070445 72 184 0.0 2.0 0.00 0.15 0.00 90 1016.1
20260831065926 72 184 0.0 0.0 0.00 0.15 0.00 90 1016.0
20260831065427 72 185 0.0 2.0 0.00 0.15 0.00 90 1015.9
20260831064947 72 185 0.0 2.0 0.00 0.15 0.00 90 1015.9
20260831064427 72 194 0.0 2.0 0.00 0.15 0.00 90 1016.0
20260831063948 72 179 0.0 4.0 0.00 0.15 0.00 90 1016.1
20260831063428 72 181 1.0 4.0 0.00 0.15 0.00 90 1016.3
20260831062928 72 184 0.0 2.0 0.00 0.15 0.00 90 1016.2
20260831062430 72 129 0.0 1.0 0.00 0.15 0.00 90 1016.3
20260831061932 72 187 0.0 2.0 0.00 0.15 0.00 90 1016.3
20260831061450 72 198 0.0 1.0 0.00 0.15 0.00 90 1016.4
20260831060930 72 253 0.0 0.0 0.00 0.15 0.00 90 1016.4
20260831060429 72 253 0.0 0.0 0.00 0.15 0.00 90 1016.3
20260831055930 72 253 0.0 0.0 0.00 0.15 0.00 90 1016.2
20260831055414 72 253 0.0 0.0 0.00 0.15 0.00 90 1016.4
20260831054931 72 253 0.0 0.0 0.00 0.15 0.00 90 1016.4
20260831054451 72 253 0.0 0.0 0.00 0.15 0.00 90 1016.6
20260831053950 72 253 0.0 0.0 0.00 0.15 0.00 89 1016.6
20260831053429 72 253 0.0 0.0 0.00 0.15 0.00 89 1016.6
20260831052931 72 253 0.0 0.0 0.00 0.15 0.00 89 1016.6
20260831052431 73 253 0.0 0.0 0.00 0.15 0.00 89 1016.7
20260831051951 73 253 0.0 0.0 0.00 0.15 0.00 89 1016.7
20260831051430 73 253 0.0 0.0 0.00 0.15 0.00 89 1016.7
20260831050931 73 253 0.0 1.0 0.00 0.15 0.00 89 1016.6
20260831050432 73 253 0.0 0.0 0.00 0.15 0.00 89 1016.6
20260831045931 73 253 0.0 0.0 0.00 0.15 0.00 89 1016.5
20260831045430 73 253 0.0 0.0 0.00 0.15 0.00 89 1016.5
20260831044951 73 253 0.0 0.0 0.00 0.15 0.00 89 1016.7
20260831044431 73 253 0.0 0.0 0.00 0.15 0.00 88 1016.7
20260831043933 73 253 0.0 0.0 0.00 0.15 0.00 88 1016.6
20260831043413 73 253 0.0 0.0 0.00 0.15 0.00 88 1016.4
20260831042914 73 253 0.0 0.0 0.00 0.15 0.00 88 1016.5
20260831042433 73 253 0.0 1.0 0.00 0.15 0.00 88 1016.8
20260831041913 73 253 0.0 1.0 0.00 0.15 0.00 88 1016.7
20260831041415 73 253 0.0 1.0 0.00 0.15 0.00 88 1016.6
20260831040917 73 253 0.0 1.0 0.00 0.15 0.00 88 1016.6
20260831040418 73 253 0.0 1.0 0.00 0.15 0.15 88 1016.6
20260831035921 73 253 0.0 0.0 0.00 0.15 0.15 88 1016.6
20260831035421 73 217 0.0 1.0 0.00 0.15 0.15 88 1016.6
20260831034942 73 200 0.0 3.0 0.00 0.15 0.15 88 1016.5
20260831034422 73 184 0.0 5.0 0.00 0.15 0.15 88 1016.4
20260831033921 73 184 2.0 5.0 0.00 0.15 0.15 88 1016.3
20260831033423 73 184 1.0 6.0 0.00 0.15 0.15 88 1016.3
20260831032925 74 165 2.0 6.0 0.00 0.15 0.15 88 1016.2
20260831032426 74 157 2.0 5.0 0.00 0.15 0.15 88 1016.3
20260831031947 74 178 2.0 8.0 0.00 0.15 0.15 88 1016.1
20260831031426 74 209 4.0 8.0 0.00 0.15 0.15 87 1016.6
20260831030951 74 273 2.0 6.0 0.00 0.15 0.15 88 1016.8
20260831030433 74 202 3.0 6.0 0.00 0.15 0.15 86 1016.7
20260831025916 74 219 3.0 5.0 0.00 0.15 0.15 86 1016.7
20260831025418 73 186 2.0 5.0 0.00 0.15 0.15 87 1016.5
20260831024921 73 233 3.0 5.0 0.00 0.15 0.15 88 1016.8
20260831024422 73 252 2.0 4.0 0.00 0.15 0.15 88 1016.9
20260831023952 73 237 2.0 4.0 0.00 0.15 0.15 89 1016.6
20260831023453 73 223 1.0 3.0 0.00 0.15 0.15 89 1016.4
20260831022952 73 244 2.0 3.0 0.00 0.15 0.15 90 1016.5
20260831022431 72 227 1.0 3.0 0.00 0.15 0.15 90 1016.4
20260831021913 72 223 1.0 3.0 0.00 0.15 0.15 90 1016.6
20260831021414 72 238 0.0 3.0 0.00 0.15 0.15 90 1016.4
20260831020915 72 204 1.0 3.0 0.00 0.15 0.15 91 1016.4
20260831020416 72 254 0.0 0.0 0.00 0.15 0.15 91 1016.3
20260831015918 72 207 0.0 0.0 0.00 0.15 0.15 91 1016.3
20260831015420 72 194 0.0 0.0 0.00 0.15 0.15 91 1016.3
20260831014922 72 193 0.0 0.0 0.00 0.15 0.15 91 1016.4
20260831014425 72 193 0.0 0.0 0.00 0.15 0.15 91 1016.5
20260831013956 71 244 0.0 0.0 0.00 0.15 0.15 91 1016.5
20260831013441 71 244 0.0 0.0 0.00 0.15 0.15 91 1016.5
20260831012925 71 244 0.0 0.0 0.00 0.15 0.15 91 1016.4
20260831012428 71 251 0.0 0.0 0.00 0.15 0.15 91 1016.3
20260831011931 71 229 0.0 0.0 0.00 0.15 0.15 91 1016.2
20260831011414 71 194 0.0 1.0 0.00 0.15 0.15 91 1016.2
20260831010915 71 218 0.0 0.0 0.00 0.15 0.15 92 1016.2
20260831010416 71 218 0.0 0.0 0.00 0.15 0.15 91 1016.2
20260831005915 71 218 0.0 1.0 0.00 0.15 0.15 91 1016.0
20260831005414 71 218 0.0 1.0 0.00 0.15 0.15 91 1016.1
20260831004933 70 218 0.0 1.0 0.00 0.15 0.15 91 1015.9
20260831004432 70 218 0.0 0.0 0.00 0.15 0.15 91 1015.8
20260831003951 70 218 0.0 0.0 0.00 0.15 0.15 91 1015.8
20260831003431 70 218 0.0 0.0 0.00 0.15 0.15 91 1015.9
20260831002930 70 218 0.0 0.0 0.00 0.15 0.15 91 1016.0
20260831002451 70 218 0.0 0.0 0.00 0.15 0.15 91 1016.0
20260831001930 70 218 0.0 0.0 0.00 0.15 0.15 90 1016.0
20260831001429 70 218 0.0 0.0 0.00 0.15 0.15 90 1015.9
20260831000927 70 218 0.0 0.0 0.00 0.15 0.15 90 1016.1
20260831000425 70 218 0.0 0.0 0.00 0.15 0.15 89 1016.2
20260830235925 70 218 0.0 1.0 0.00 0.15 0.15 89 1016.2
20260830235425 70 218 0.0 1.0 0.00 0.15 0.15 89 1016.2
20260830234926 70 218 0.0 0.0 0.00 0.15 0.15 88 1016.1
20260830234426 70 218 0.0 0.0 0.00 0.15 0.15 88 1016.4
20260830233926 70 218 0.0 0.0 0.00 0.15 0.15 88 1016.5
20260830233508 70 218 0.0 0.0 0.00 0.15 0.15 87 1016.6
20260830232916 70 218 0.0 0.0 0.00 0.15 0.15 87 1016.7
20260830232435 70 218 0.0 0.0 0.00 0.15 0.15 87 1016.9
20260830231915 70 218 0.0 0.0 0.00 0.15 0.15 86 1016.8
20260830231435 70 218 0.0 0.0 0.00 0.15 0.15 86 1016.6
20260830230915 70 218 0.0 0.0 0.01 0.15 0.15 85 1016.6
20260830230414 70 218 0.0 0.0 0.01 0.15 0.15 85 1016.5
20260830225933 70 218 0.0 0.0 0.01 0.15 0.15 84 1016.4
20260830225452 70 218 0.0 3.0 0.01 0.15 0.15 84 1016.2
20260830224930 70 255 0.0 3.0 0.01 0.15 0.15 84 1016.5
20260830224428 71 229 1.0 2.0 0.01 0.15 0.15 84 1016.3
20260830223928 71 180 0.0 2.0 0.01 0.15 0.15 83 1016.2
20260830223428 71 204 1.0 3.0 0.01 0.15 0.15 83 1016.5
20260830222948 71 210 1.0 5.0 0.01 0.15 0.15 83 1016.5
20260830222427 71 209 2.0 5.0 0.01 0.15 0.15 83 1016.7
20260830221927 71 190 0.0 3.0 0.01 0.15 0.15 84 1016.9
20260830221426 72 306 0.0 2.0 0.01 0.15 0.15 83 1017.3
20260830220926 72 254 1.0 6.0 0.00 0.14 0.14 82 1016.9
20260830220445 72 243 2.0 8.0 0.00 0.14 0.14 81 1016.9
20260830215925 72 217 3.0 8.0 0.00 0.14 0.14 80 1016.8
20260830215423 72 254 4.0 7.0 0.00 0.14 0.14 80 1016.7
20260830214924 72 248 3.0 7.0 0.00 0.14 0.14 80 1016.7
20260830214423 73 269 2.0 6.0 0.00 0.14 0.14 80 1017.0
20260830213923 73 225 3.0 8.0 0.00 0.14 0.14 80 1017.1
20260830213421 73 265 2.0 6.0 0.00 0.14 0.14 80 1017.2
20260830212922 74 243 3.0 5.0 0.00 0.14 0.14 82 1017.3
20260830212423 74 258 2.0 6.0 0.00 0.14 0.14 81 1017.2
20260830211923 74 286 1.0 6.0 0.00 0.14 0.14 80 1017.2
20260830211423 75 236 2.0 5.0 0.00 0.14 0.14 80 1016.9
20260830210923 75 250 2.0 7.0 0.00 0.14 0.14 78 1016.9
20260830210442 76 229 3.0 7.0 0.00 0.14 0.14 77 1016.7
20260830205920 76 244 3.0 7.0 0.00 0.14 0.14 75 1016.6
20260830205420 77 244 4.0 6.0 0.00 0.14 0.14 73 1016.8
20260830204921 77 227 3.0 11.0 0.00 0.14 0.14 73 1016.8
20260830204442 78 195 5.0 11.0 0.00 0.14 0.14 73 1017.0
20260830203920 78 234 3.0 6.0 0.00 0.14 0.14 73 1017.1
20260830203421 78 223 2.0 5.0 0.00 0.14 0.14 73 1017.2
20260830202921 78 214 2.0 4.0 0.00 0.14 0.14 73 1017.4
20260830202422 79 263 0.0 3.0 0.00 0.14 0.14 72 1017.6
20260830201921 79 304 0.0 5.0 0.00 0.14 0.14 71 1017.4
20260830201421 79 218 3.0 5.0 0.00 0.14 0.14 70 1017.0
20260830200922 79 243 2.0 4.0 0.00 0.14 0.14 69 1017.2
20260830200422 79 245 1.0 5.0 0.00 0.14 0.14 69 1017.2
20260830195942 79 232 2.0 5.0 0.00 0.14 0.14 68 1017.1
20260830195420 80 254 3.0 7.0 0.00 0.14 0.14 68 1017.0
20260830194921 80 191 2.0 8.0 0.00 0.14 0.14 68 1016.8
20260830194420 80 209 3.0 7.0 0.00 0.14 0.14 66 1016.6
20260830193919 80 232 3.0 5.0 0.00 0.14 0.14 66 1016.5
20260830193419 80 221 2.0 5.0 0.00 0.14 0.14 66 1016.5
20260830192919 80 234 3.0 8.0 0.00 0.14 0.14 66 1016.4
20260830192418 80 234 5.0 8.0 0.00 0.14 0.14 64 1016.3
20260830191919 80 246 3.0 8.0 0.00 0.14 0.14 65 1016.2
20260830191441 81 215 5.0 8.0 0.00 0.14 0.14 64 1016.3
20260830190920 81 161 3.0 8.0 0.00 0.14 0.14 66 1016.6
20260830190435 81 192 4.0 9.0 0.00 0.14 0.14 66 1016.7
20260830185954 80 180 3.0 9.0 0.00 0.14 0.14 67 1016.6
20260830185453 80 202 5.0 9.0 0.00 0.14 0.14 68 1016.7
20260830184930 80 235 2.0 7.0 0.00 0.14 0.14 71 1016.7
20260830184428 80 238 2.0 8.0 0.00 0.14 0.14 71 1016.7
20260830183926 80 226 3.0 11.0 0.00 0.14 0.14 72 1016.6
20260830183425 79 135 4.0 13.0 0.00 0.14 0.14 71 1016.8
20260830182925 79 243 3.0 9.0 0.00 0.14 0.14 73 1016.9
20260830182423 79 202 5.0 9.0 0.00 0.14 0.14 71 1016.9
20260830181923 79 232 3.0 8.0 0.00 0.14 0.14 72 1017.0
20260830181422 78 238 4.0 8.0 0.00 0.14 0.14 73 1017.0
20260830180921 78 215 3.0 10.0 0.00 0.14 0.14 75 1016.9
20260830180421 77 224 3.0 10.0 0.00 0.14 0.14 76 1016.8
20260830175920 77 192 3.0 7.0 0.00 0.14 0.14 76 1016.7
20260830175418 77 242 3.0 11.0 0.00 0.14 0.14 76 1016.6
20260830174937 77 190 3.0 11.0 0.00 0.14 0.14 75 1016.5
20260830174456 77 220 1.0 5.0 0.00 0.14 0.14 77 1016.7
20260830173954 76 190 1.0 7.0 0.00 0.14 0.14 77 1016.7
20260830173452 76 190 1.0 7.0 0.00 0.14 0.14 78 1016.6
20260830172930 76 162 2.0 8.0 0.00 0.14 0.14 81 1016.6
20260830172428 75 134 1.0 4.0 0.00 0.14 0.14 82 1016.6
20260830171926 74 98 1.0 4.0 0.00 0.14 0.14 83 1016.7
20260830171426 74 179 2.0 6.0 0.00 0.14 0.14 84 1016.9
20260830170927 73 194 1.0 5.0 0.00 0.14 0.14 87 1017.1
20260830170428 72 144 0.0 6.0 0.00 0.14 0.14 88 1017.1
20260830165947 72 174 1.0 7.0 0.00 0.14 0.14 88 1017.3
20260830165426 71 177 4.0 7.0 0.00 0.14 0.14 89 1017.5
20260830164926 71 190 2.0 6.0 0.00 0.14 0.14 91 1017.5
20260830164446 70 119 0.0 4.0 0.00 0.14 0.14 92 1017.8
20260830163945 70 168 2.0 4.0 0.00 0.14 0.14 91 1018.1
20260830163424 70 176 0.0 4.0 0.00 0.14 0.14 92 1018.2
20260830162924 69 182 0.0 3.0 0.00 0.14 0.14 92 1018.2
20260830162424 69 188 1.0 5.0 0.00 0.14 0.14 92 1018.3
20260830161925 69 184 1.0 6.0 0.01 0.14 0.14 92 1018.2
20260830161445 69 186 1.0 6.0 0.01 0.14 0.14 93 1018.2
20260830160943 69 139 1.0 4.0 0.01 0.14 0.14 93 1018.2
20260830160422 68 196 1.0 3.0 0.01 0.14 0.14 93 1018.2
20260830155921 68 174 0.0 3.0 0.02 0.14 0.14 93 1018.1
20260830155417 68 194 0.0 3.0 0.02 0.14 0.14 92 1018.1
20260830154937 67 176 0.0 3.0 0.02 0.14 0.14 92 1018.1
20260830154455 67 360 0.0 3.0 0.02 0.14 0.14 92 1018.2
20260830153933 67 150 0.0 3.0 0.03 0.14 0.14 92 1018.2
20260830153433 67 193 0.0 3.0 0.03 0.14 0.14 91 1018.3
20260830152933 67 168 0.0 3.0 0.03 0.14 0.14 91 1018.3
20260830152432 67 157 0.0 3.0 0.03 0.14 0.14 91 1018.5
20260830151931 67 167 0.0 0.0 0.03 0.13 0.13 91 1018.8
20260830151431 67 180 0.0 0.0 0.04 0.13 0.13 91 1019.1
20260830150931 67 180 0.0 0.0 0.04 0.13 0.13 91 1019.2
20260830150431 67 180 0.0 0.0 0.05 0.13 0.13 90 1019.6
20260830145932 67 180 0.0 2.0 0.04 0.12 0.12 90 1019.6
20260830145433 67 180 0.0 2.0 0.04 0.12 0.12 90 1019.5
20260830144933 67 187 0.0 1.0 0.05 0.12 0.12 90 1019.5
20260830144452 68 184 0.0 0.0 0.05 0.12 0.12 90 1019.6
20260830143931 68 184 0.0 0.0 0.05 0.11 0.11 90 1019.5
20260830143431 68 213 0.0 3.0 0.05 0.11 0.11 90 1019.4
20260830142930 68 213 0.0 3.0 0.05 0.11 0.11 90 1019.2
20260830142431 68 207 0.0 0.0 0.05 0.11 0.11 90 1019.4
20260830141931 68 207 0.0 0.0 0.04 0.10 0.10 89 1019.7
20260830141432 68 207 0.0 0.0 0.03 0.09 0.09 89 1019.8
20260830140931 68 207 0.0 0.0 0.03 0.09 0.09 89 1019.7
20260830140450 68 207 0.0 0.0 0.02 0.08 0.08 89 1019.8
20260830135947 68 206 0.0 0.0 0.02 0.08 0.08 88 1019.7
20260830135426 68 360 0.0 0.0 0.02 0.08 0.08 88 1019.7
20260830134923 68 360 0.0 0.0 0.01 0.07 0.07 88 1019.5
20260830134441 68 360 0.0 0.0 0.01 0.07 0.07 88 1019.5
20260830133919 68 360 0.0 0.0 0.00 0.06 0.06 87 1019.5
20260830133417 68 360 0.0 0.0 0.00 0.06 0.06 87 1019.4
20260830132916 68 207 0.0 0.0 0.00 0.06 0.06 87 1019.3
20260830132416 68 201 0.0 0.0 0.00 0.06 0.06 87 1019.2
20260830131915 68 201 0.0 0.0 0.00 0.06 0.06 87 1019.2
20260830131415 68 201 0.0 0.0 0.00 0.06 0.06 87 1019.0
20260830130914 68 201 0.0 0.0 0.00 0.06 0.06 87 1018.8
20260830130434 68 201 0.0 0.0 0.00 0.06 0.06 87 1018.7
20260830125915 68 201 0.0 0.0 0.00 0.06 0.06 87 1018.6
20260830125415 68 201 0.0 0.0 0.00 0.06 0.06 87 1018.5